User: anonymous   Login
Location: Albany
(35.0000°S, 118.0000°E)
Time: 15:42:49
(UTC-04:00)
Language:

Centaur D-1AR AC-48 - Orbit

View from above orbital plane
View from above orbital plane
View from above satellite
View from above satellite

Ground track
Ground track

The orbit data is extracted from the following two-line orbital elements,

1 10779U 78035B   17291.35098618 -.00000072  00000-0  74342-4 0  9991
2 10779  21.8995  25.9327 7173904  90.5633 355.0015  2.22654417321430
Epoch (UTC): 18 October 2017 08:25:25
Eccentricity: 0.7173904
inclination: 21.8995°
perigee height: 623 km
apogee height: 36166 km
right ascension of ascending node: 25.9327°
argument of perigee: 90.5633°
revolutions per day: 2.22654417
mean anomaly at epoch: 355.0015°
orbit number at epoch: 32143

The dashed part of the orbit path shows where the satellite is in the earth's shadow,  

DLR